Owensboro, KY

6:24 AM CST on February 21, 2018 (GMT -0600)
Owensboro-Daviess County

Weather History for KOWB - November, 2012

Change the Weather History Date:

Wednesday, November 14, 2012

  Actual Average Record
Temperature  
Mean Temperature 39 °F -  
Max Temperature 46 °F 57 °F 80 °F (1971)
Min Temperature 32 °F 35 °F 15 °F (1940)
Degree Days  
Heating Degree Days 26    
Moisture  
Dew Point 29 °F    
Average Humidity 67    
Maximum Humidity 80    
Minimum Humidity 50    
Precipitation  
Precipitation 0.00 in - - ()
Sea Level Pressure  
Sea Level Pressure 30.43 in    
Wind  
Wind Speed 6 mph (NE)    
Max Wind Speed 9 mph    
Max Gust Speed -    
Visibility 9 miles    
Events      
Averages and records for this station are not official NWS values.
T = Trace of Precipitation, MM = Missing Value Source: NWS Daily Summary

Daily Weather History Graph

Daily Weather History Graph

Search for Another Location

Airport or City:

Trip Planner

Search our weather history database for the weather conditions in past years. The results will help you decide how hot, cold, wet, or windy it might be!

Date:

Astronomy

Nov. 14, 2012 Rise Set
Actual Time 6:28 AM CST 4:37 PM CST
Civil Twilight 6:00 AM CST 5:05 PM CST
Nautical Twilight 5:28 AM CST 5:37 PM CST
Astronomical Twilight 4:57 AM CST 6:08 PM CST
Moon 7:16 AM CST (11/14) 5:27 PM CST (11/14)
Length of Visible Light 11h 05m
Length of Day
10h 09m
New Moon, 1% of the Moon is Illuminated
Nov 14
New Moon
Nov 20
First Quarter
Nov 28
Full
Dec 6
Last Quarter
Dec 13
New

Hourly Weather History & Observations

Time (CST) Temp. Windchill Dew Point Humidity Pressure Visibility Wind Dir Wind Speed Gust Speed Precip Events Conditions
12:56 AM 34.9 °F 29.9 °F 27.1 °F 73% 30.48 in 7.0 mi NE 5.8 mph - N/A   Clear
1:56 AM 34.0 °F 28.0 °F 27.1 °F 76% 30.48 in 4.0 mi ENE 6.9 mph - N/A   Haze
2:23 AM 33.8 °F 27.7 °F 26.6 °F 75% 30.47 in 2.5 mi ENE 6.9 mph - N/A   Haze
2:56 AM 34.0 °F 28.0 °F 27.1 °F 76% 30.48 in 2.5 mi ENE 6.9 mph - N/A   Haze
3:56 AM 34.0 °F 26.6 °F 26.1 °F 73% 30.47 in 7.0 mi ENE 9.2 mph - N/A   Clear
4:56 AM 32.9 °F 26.7 °F 26.1 °F 76% 30.48 in 10.0 mi ENE 6.9 mph - N/A   Clear
5:56 AM 32.9 °F 26.7 °F 26.1 °F 76% 30.48 in 10.0 mi NNE 6.9 mph - 0.00 in   Clear
6:56 AM 32.9 °F 28.5 °F 27.1 °F 79% 30.49 in 10.0 mi East 4.6 mph - N/A   Partly Cloudy
8:56 AM 37.9 °F 33.5 °F 29.1 °F 71% 30.51 in 10.0 mi NE 5.8 mph - N/A   Scattered Clouds
9:56 AM 43.0 °F 40.3 °F 31.1 °F 63% 30.51 in 10.0 mi East 4.6 mph - N/A   Clear
10:56 AM 43.9 °F 39.3 °F 30.0 °F 58% 30.47 in 10.0 mi East 8.1 mph - N/A   Clear
11:56 AM 45.9 °F 41.2 °F 28.0 °F 50% 30.44 in 10.0 mi ENE 9.2 mph - N/A   Clear
12:56 PM 45.9 °F 41.7 °F 29.1 °F 52% 30.41 in 10.0 mi NNE 8.1 mph - N/A   Clear
1:56 PM 45.9 °F 42.3 °F 29.1 °F 52% 30.40 in 10.0 mi NE 6.9 mph - 0.00 in   Clear
2:56 PM 46.9 °F - 29.1 °F 50% 30.40 in 10.0 mi NNE 8.1 mph - N/A   Partly Cloudy
3:56 PM 45.9 °F 42.9 °F 29.1 °F 52% 30.40 in 10.0 mi North 5.8 mph - N/A   Clear
4:56 PM 45.0 °F 43.5 °F 29.1 °F 54% 30.38 in 10.0 mi NE 3.5 mph - N/A   Clear
5:56 PM 45.0 °F - 30.0 °F 56% 30.38 in 10.0 mi Calm Calm - N/A   Clear
6:56 PM 41.0 °F - 30.0 °F 65% 30.39 in 10.0 mi Calm Calm - N/A   Clear
7:56 PM 41.0 °F 38.0 °F 31.1 °F 68% 30.38 in 10.0 mi ENE 4.6 mph - N/A   Clear
8:56 PM 39.9 °F 36.7 °F 31.1 °F 71% 30.38 in 10.0 mi NE 4.6 mph - N/A   Clear
9:56 PM 37.9 °F 35.5 °F 31.1 °F 76% 30.38 in 10.0 mi NE 3.5 mph - N/A   Clear
10:56 PM 36.9 °F 33.1 °F 31.1 °F 80% 30.36 in 10.0 mi ENE 4.6 mph - N/A   Clear
11:56 PM 36.9 °F 34.3 °F 31.1 °F 80% 30.35 in 10.0 mi NE 3.5 mph - N/A   Clear